Showing default

CZ-12 // RB, 69581

Orbit data source: Space-Track

CZ-12 // RB, 69581 is a payload satellite owned by CNSA (CN) in LEO that was launched on Wed, 17 Jun 2026 UTC launched from the Wenchang Satellite Launch Center (WSC). Payload-class satellites include a variety of spacecraft equipped with specific instruments for various scientific and technological missions. These include communications satellites like Starlink; space stations such as the ISS; scientific satellites like the Hubble; Earth observation satellites from companies like Planet Labs, Umbra, and HawkEye 360; GPS; miniature CubeSats for education and research; and military/defense satellites.

Loading next visibility...
Identifier
69581, 2026-137K
Orbit
LEO
Country
Flag of CNCN / PRC
Related business
Manufacturer
SAST
Mission
Spacecraft
Bus & Motor
CZ-12 STAGE 2, YF-115
Mass
~6,000 kg wet, ~6,000 kg dry
Launch date (UTC)
2026-06-17 (2 days ago)
Launch vehicle
Unknown
Launch site
Wenchang Satellite Launch Center (WSC)
Object type
Payload
Rocket body
Debris
Shape & HBR
Unknown
Radar Cross Section
RCS unknown

Expand to show TLE details & history
Last TLE update: 4 hours ago

TLE from 4 hours ago
0 CZ-12 // RB
1 69581U 26137K   26170.63649522 -.00000229  00000-0 -38912-4 0  9993
2 69581  49.9892 245.3154 0077519 122.2242 238.6210 14.11689335   351
Epoch: 2026-06-19T15:16Z
TLE epoch observation values (Epoch: 2026-06-19T15:16:33.187Z)
Latitude
-0°
Longitude
108.3145°
Altitude
883.626 km
Speed
7.397 km/s
True Right ascension
16h 21m 15s
True Declination
0° 00' 00"
Sunlit
Object was in full shadow at epoch
Visualization orbit readout
Latitude
Unknown
Longitude
Unknown
Altitude
Unknown
Speed
Unknown
Apparent Right ascension
Unknown
Apparent Declination
Unknown
Sunlit
N/A
Visualization observer readout
Local Sidereal Time
05:55:51
Azimuth
Unknown
Elevation
Unknown
Doppler factor
Unknown
Orbital elements
Apogee altitude
910.398 km
Perigee altitude
798.267 km
Semi-major axis
7,232.469 km
Eccentricity
0.00775
Inclination
49.9892°
RAAN
245.3154°
Arg. of periapsis
122.2242°
True anomaly
237.86645°
Mean anomaly
238.621°
Eccentric anomaly
238.24334°
Mean motion
3.52869 °/min
Orbital period
102.02 mins
BSTAR
-0.000038912
Loading maneuver chart data...
Computing Atmospheric mass density...
Loading historical data...
Loading historical data...
Loading historical data...
Loading historical data...
Loading historical data...
Loading historical data...
Loading historical data...

Documentation

Showing up to 5 results
|